Location: Olomouc
(49.5830°N, 17.2500°E)
Time: 20:41:42
(UTC+02:00)

ISS - Pass Details

Date: 09 May 2021
Orbit: 417 x 422 km, 51.6° (Epoch: 14 June)

Event Time Altitude Azimuth Distance (km) Brightness Sun altitude
Exits shadow 03:34:44 - 281° (W) 1,605 -1.1 -13.5°
Reaches altitude 10° 03:34:59 10° 281° (WNW) 1,508 -1.2 -13.5°
Maximum altitude 03:38:20 58° 2° (N) 496 -3.2 -13.1°
Drops below altitude 10° 03:41:41 10° 83° (E) 1,510 -0.2 -12.8°
Sets 03:43:48 0° 87° (E) 2,375 0.8 -12.5°
